GW0525 Weather Reports


Display with metric or nautical units.
time (UTC)temp
F
wind
direction
speed
MPH
gust
MPH
rain 1hr
in
rain 24hr
in
rain mn
in
humidity
%
barometer
mb
20260906144634 66 13 10.0 13.0 0.00 0.01 0.01 97 1014.2
20260906143116 66 338 12.0 15.0 0.00 0.01 0.01 97 1014.5
20260906141607 65 67 8.0 15.0 0.01 0.01 0.01 97 1014.1
20260906140107 65 340 9.0 12.0 0.01 0.01 0.01 97 1014.4
20260906134604 65 339 3.0 8.0 0.01 0.01 0.01 96 1014.9
20260906133109 64 84 6.0 16.0 0.01 0.01 0.01 96 1014.3
20260906131615 64 90 4.0 10.0 0.00 0.00 0.00 96 1014.3
20260906130106 64 68 8.0 12.0 0.00 0.00 0.00 96 1014.5
20260906124608 64 82 8.0 17.0 0.00 0.00 0.00 96 1014.3
20260906123110 64 21 11.0 21.0 0.00 0.00 0.00 96 1015.1
20260906121608 63 40 16.0 22.0 0.00 0.00 0.00 96 1014.7
20260906120122 63 350 17.0 22.0 0.00 0.00 0.00 96 1014.9
20260906114611 63 339 10.0 16.0 0.00 0.00 0.00 96 1015.5
20260906113103 63 340 10.0 16.0 0.00 0.00 0.00 96 1015.2
20260906111607 63 45 11.0 13.0 0.00 0.00 0.00 96 1014.5
20260906110113 62 42 5.0 9.0 0.00 0.00 0.00 95 1014.5
20260906104605 62 11 4.0 7.0 0.00 0.00 0.00 95 1014.5
20260906103103 63 338 5.0 9.0 0.00 0.00 0.00 95 1014.9
20260906101603 64 311 4.0 5.0 0.00 0.00 0.00 95 1015.0
20260906100110 63 289 3.0 6.0 0.00 0.00 0.00 95 1014.6
20260906094606 64 291 0.0 4.0 0.00 0.00 0.00 95 1014.6
20260906093118 64 0 0.0 2.0 0.00 0.00 0.00 94 1014.6
20260906091605 64 50 3.0 4.0 0.00 0.00 0.00 94 1014.5
20260906090128 64 42 3.0 8.0 0.00 0.00 0.00 93 1014.4
20260906084604 65 38 5.0 6.0 0.00 0.00 0.00 93 1014.3
20260906083103 65 42 2.0 6.0 0.00 0.00 0.00 93 1014.5
20260906081604 65 25 4.0 9.0 0.00 0.00 0.00 93 1014.4
20260906080105 65 46 6.0 8.0 0.00 0.00 0.00 93 1014.3
20260906074607 66 53 4.0 7.0 0.00 0.00 0.00 93 1014.7
20260906073105 65 75 4.0 8.0 0.00 0.00 0.00 91 1014.9
20260906071610 66 53 5.0 6.0 0.00 0.00 0.00 91 1015.1
20260906070111 66 36 3.0 5.0 0.00 0.00 0.00 91 1015.1
20260906064604 66 34 4.0 7.0 0.00 0.00 0.00 90 1015.1
20260906063104 67 30 2.0 10.0 0.00 0.00 0.00 89 1015.1
20260906061607 67 57 4.0 8.0 0.00 0.00 0.00 88 1015.1
20260906060111 66 37 0.0 5.0 0.00 0.00 0.00 88 1015.1
20260906054604 66 18 5.0 8.0 0.00 0.00 0.00 88 1015.1
20260906053104 66 342 3.0 5.0 0.00 0.00 0.00 87 1015.2
20260906051606 67 351 7.0 13.0 0.00 0.00 0.00 86 1015.2
20260906050133 68 32 12.0 14.0 0.00 0.00 0.00 84 1015.1
20260906044602 68 24 12.0 15.0 0.00 0.00 0.00 84 1015.2
20260906043121 69 41 12.0 15.0 0.00 0.00 0.00 82 1015.4
20260906041605 69 37 12.0 15.0 0.00 0.00 0.00 82 1015.4
20260906040121 69 34 11.0 13.0 0.00 0.00 0.00 81 1015.6
20260906034606 70 42 10.0 13.0 0.00 0.00 0.00 79 1015.7
20260906033108 70 35 9.0 13.0 0.00 0.00 0.00 78 1015.6
20260906031605 70 32 10.0 12.0 0.00 0.00 0.00 77 1015.6
20260906030135 71 36 9.0 13.0 0.00 0.00 0.00 76 1015.7
20260906024609 72 38 7.0 12.0 0.00 0.00 0.00 75 1015.7
20260906023126 73 40 10.0 16.0 0.00 0.00 0.00 73 1015.4
20260906021616 73 64 11.0 17.0 0.00 0.00 0.00 72 1015.2
20260906020107 74 29 15.0 20.0 0.00 0.00 0.00 70 1015.0
20260906014623 75 67 11.0 14.0 0.00 0.00 0.00 69 1014.9
20260906013104 77 46 13.0 19.0 0.00 0.00 0.00 66 1014.8
20260906011607 79 45 14.0 19.0 0.00 0.00 0.00 62 1014.5
20260906010109 80 345 10.0 15.0 0.00 0.00 0.00 59 1014.2
20260906004606 81 346 14.0 19.0 0.00 0.00 0.00 57 1014.0
20260906003110 82 21 13.0 19.0 0.00 0.00 0.00 56 1013.9
20260906001606 83 12 15.0 19.0 0.00 0.00 0.00 55 1013.9
20260906000109 83 346 14.0 20.0 0.00 0.00 0.00 54 1013.6
20260905234618 84 14 13.0 18.0 0.00 0.00 0.00 53 1013.6
20260905233106 84 15 10.0 18.0 0.00 0.00 0.00 52 1013.4
20260905231607 85 344 13.0 18.0 0.00 0.00 0.00 52 1013.5
20260905230110 85 13 15.0 20.0 0.00 0.00 0.00 51 1013.5
20260905224610 85 349 14.0 20.0 0.00 0.00 0.00 52 1013.4
20260905223107 85 43 18.0 25.0 0.00 0.00 0.00 51 1013.3
20260905221605 85 40 13.0 22.0 0.00 0.00 0.00 50 1013.3
20260905220108 85 36 14.0 19.0 0.00 0.00 0.00 51 1013.4
20260905214613 85 342 13.0 19.0 0.00 0.00 0.00 51 1013.6
20260905213117 85 311 11.0 22.0 0.00 0.00 0.00 50 1013.6
20260905211603 85 346 8.0 18.0 0.00 0.00 0.00 50 1013.6
20260905210109 85 331 8.0 15.0 0.00 0.00 0.00 50 1013.7
20260905204602 84 344 8.0 19.0 0.00 0.00 0.00 51 1013.6
20260905203105 84 351 6.0 13.0 0.00 0.00 0.00 51 1013.7
20260905201607 83 317 8.0 19.0 0.00 0.00 0.00 54 1013.8
20260905194603 83 336 5.0 16.0 0.00 0.00 0.00 54 1013.7
20260905193106 82 340 5.0 16.0 0.00 0.00 0.00 56 1013.7
20260905191615 82 26 10.0 16.0 0.00 0.00 0.00 57 1013.6
20260905190105 82 56 11.0 16.0 0.00 0.00 0.00 57 1013.8
20260905184623 81 67 9.0 19.0 0.00 0.00 0.00 59 1013.9
20260905183114 80 350 12.0 19.0 0.00 0.00 0.00 60 1014.0
20260905181623 80 27 10.0 14.0 0.00 0.00 0.00 62 1014.1
20260905180111 79 22 11.0 16.0 0.00 0.00 0.00 61 1014.1
20260905174617 79 25 13.0 21.0 0.00 0.00 0.00 63 1014.1
20260905173113 79 11 11.0 17.0 0.00 0.00 0.00 62 1013.9
20260905171605 77 63 9.0 16.0 0.00 0.00 0.00 66 1014.0
20260905170106 76 52 8.0 16.0 0.00 0.00 0.00 67 1014.3
20260905164605 76 89 2.0 12.0 0.00 0.00 0.00 69 1014.4
20260905163108 75 325 0.0 12.0 0.00 0.00 0.00 71 1014.3
20260905161608 74 44 7.0 11.0 0.00 0.00 0.00 72 1014.2
20260905160113 74 0 1.0 7.0 0.00 0.00 0.00 73 1014.0
20260905154607 72 0 2.0 12.0 0.00 0.00 0.00 75 1013.6
20260905153118 71 109 5.0 11.0 0.00 0.00 0.00 78 1013.1
20260905151609 71 77 8.0 14.0 0.00 0.00 0.00 78 1013.2
20260905150108 70 74 10.0 17.0 0.00 0.00 0.00 80 1013.0